Home   Weather   Pereira   Past weeks

Flag for Colombia Past Weather in Pereira, Colombia — Yesterday and Last 2 Weeks

Now
79 °F

Scattered clouds.


Feels Like: 81 °F
Forecast: 59 / 82 °F
Wind: 5 mph from North

Location: Pereira / Matecana

Current Time: Dec 8, 2016 at 3:28:11 pm

Latest Report: Dec 8, 2016 at 3:00 pm


Visibility: N/A

Pressure: 29.97 "Hg (25.46 "Hg at 1427m altitude)

Humidity: 65%

Dew Point: 66 °F

Location of PereiraLocation

Past Weather in Pereira — Graph

°F

Pereira Temperature Yesterday

Maximum temperature yesterday: 77 °F (at 4:00 pm)
Minimum temperature yesterday: 66 °F (at 1:00 am)
Average temperature yesterday: 71 °F

High & Low Weather Summary for the Past Weeks

 TemperatureHumidityPressure
High81 °F (Nov 26, 2:00 pm)100% (Nov 25, 5:00 am)30.15 "Hg (Nov 25, 5:00 am)
Low63 °F (Dec 6, 5:00 am)25% (Dec 3, 8:00 pm)29.91 "Hg (Nov 28, 4:00 pm)
Average70 °F85%30.04 "Hg
* Reported Nov 23 2:00 pm — Dec 8 2:00 pm, Pereira, Weather by CustomWeather, © 2016

Note: Actual official high and low records may vary slightly from our data, if they occured in-between our weather recording intervals... More about our weather records

Advertising

Pereira Weather History for the Previous 24 Hours

Scroll right to see more
 ConditionsComfort  
Time TempWeatherWind HumidityBarometerVisibility
2:00 pm
Thu, Dec 8
77 °FScattered clouds.2 mph65%30.01 "HgN/A
1:00 pm77 °FScattered clouds.5 mph69%30.04 "HgN/A
12:00 pm77 °FScattered clouds.5 mph69%30.07 "HgN/A
11:00 am75 °FScattered clouds.2 mph74%30.10 "HgN/A
10:00 am72 °FFog.2 mph83%30.13 "Hg6 mi
9:00 am68 °FFog.3 mph88%30.13 "Hg4 mi
8:00 am68 °FFog.2 mph94%30.12 "Hg4 mi
7:00 am66 °FScattered clouds.No wind88%30.09 "HgN/A
6:00 am66 °FScattered clouds.7 mph88%30.07 "HgN/A
5:00 am66 °FPassing clouds.8 mph88%30.06 "HgN/A
12:00 am66 °FPassing clouds.7 mph94%30.09 "Hg5 mi
11:00 pm
Wed, Dec 7
66 °FPassing clouds.7 mph94%30.09 "Hg6 mi
10:00 pm68 °FPassing clouds.2 mph94%30.10 "Hg6 mi
9:00 pm70 °FPassing clouds.2 mph88%30.08 "Hg6 mi
8:00 pm70 °FPassing clouds.7 mph88%30.05 "HgN/A
7:00 pm72 °FPassing clouds.5 mph83%30.02 "HgN/A
5:00 pm73 °FScattered showers. Scattered clouds.5 mph83%29.98 "HgN/A
4:00 pm77 °FScattered showers. Scattered clouds.2 mph74%29.98 "HgN/A
3:00 pm75 °FScattered clouds.3 mph78%30.00 "HgN/A
Weather by CustomWeather, © 2016

See weather overviewHow to use our weather pages